Date,TemperatureHighF,TemperatureAvgF,TemperatureLowF,DewpointHighF,DewpointAvgF,DewpointLowF,HumidityHigh,HumidityAvg,HumidityLow,PressureMaxIn,PressureMinIn,WindSpeedMaxMPH,WindSpeedAvgMPH,GustSpeedMaxMPH,PrecipitationSumIn
2013-1-1,42,32,26,35,30,25,97,92,73,30.49,30.34,1,0,4,0.00
2013-1-2,45,36,28,29,26,22,97,70,48,30.35,30.19,3,0,8,0.01
2013-1-3,44,37,32,33,25,21,93,64,44,30.20,30.11,3,1,10,0.08
2013-1-4,46,40,35,45,39,33,97,96,93,30.32,30.16,1,0,2,0.23
2013-1-5,43,41,38,39,36,34,96,83,76,30.21,30.12,2,0,6,0.09
2013-1-6,44,40,37,42,39,36,97,95,93,30.20,30.00,0,0,4,0.21
2013-1-7,49,45,39,48,43,38,98,94,86,30.17,29.85,6,2,19,0.32
2013-1-8,53,46,41,50,44,40,98,92,80,30.18,29.75,8,1,21,0.32
2013-1-9,51,40,33,48,38,32,97,95,91,29.95,29.70,2,0,9,1.06
2013-1-10,37,35,31,35,34,30,96,94,92,30.12,29.95,1,0,4,0.05
2013-1-11,36,30,26,31,28,25,97,92,74,30.33,30.11,2,0,4,0.01
2013-1-12,36,28,24,30,26,23,96,91,73,30.44,30.32,2,0,4,0.01
2013-1-13,34,27,21,27,24,20,95,89,72,30.49,30.43,1,0,4,0.01
2013-1-14,36,32,28,30,29,27,94,88,74,30.56,30.47,1,0,2,0.01
2013-1-15,44,34,28,36,31,27,96,88,69,30.69,30.56,2,0,4,0.00
2013-1-16,41,31,25,35,29,24,97,92,78,31.07,30.51,3,0,5,0.00
2013-1-17,40,30,26,36,29,25,97,95,85,30.52,30.30,2,0,4,0.01
2013-1-18,35,30,26,34,29,25,98,97,96,30.34,30.27,2,0,4,0.01
2013-1-19,32,30,28,31,29,27,97,97,96,30.39,30.34,1,0,3,0.00
2013-1-20,34,30,27,33,29,26,97,96,96,30.39,30.27,0,0,3,0.00
2013-1-21,33,30,27,32,29,26,97,96,96,30.28,30.14,1,0,4,0.00
2013-1-22,37,31,25,36,30,24,97,96,95,30.15,29.91,0,0,3,0.00
2013-1-23,43,39,34,40,36,31,97,90,69,30.14,29.85,2,0,9,0.17
2013-1-24,45,40,34,40,37,33,97,91,75,30.21,30.06,2,0,9,0.17
2013-1-25,49,43,39,47,42,38,98,96,89,30.07,29.94,0,0,3,0.34
2013-1-26,46,41,38,41,38,37,98,90,75,30.04,29.89,4,1,11,0.10
2013-1-27,41,39,38,39,38,37,97,95,91,30.07,30.00,2,0,8,0.25
2013-1-28,41,39,37,40,38,36,98,97,96,30.10,30.01,1,0,7,0.45
2013-1-29,45,43,41,44,42,40,100,98,97,30.37,30.10,3,0,9,0.46
2013-1-30,47,46,43,46,45,42,98,98,97,30.39,30.34,2,0,5,0.38
2013-1-31,48,46,45,47,45,44,98,97,95,30.39,30.31,1,0,4,0.20
2013-2-1,50,45,39,46,43,38,98,96,85,30.41,30.34,1,0,7,0.05
2013-2-2,41,39,36,40,38,35,98,97,95,30.38,30.26,2,0,5,0.01
2013-2-3,46,41,34,44,40,33,98,96,90,30.31,30.22,0,0,3,0.06
2013-2-4,51,45,42,46,43,41,98,92,77,30.22,29.89,1,0,3,0.06
2013-2-5,49,45,42,45,43,41,97,93,78,29.96,29.85,4,1,9,0.30
2013-2-6,50,44,42,43,41,40,96,89,70,30.07,29.80,4,1,10,0.20
2013-2-7,48,41,32,42,36,31,95,84,60,30.18,29.80,3,1,9,0.12
2013-2-8,44,37,30,39,34,29,97,90,76,30.31,30.18,1,0,4,0.01
2013-2-9,44,40,38,41,38,36,96,92,85,30.34,30.27,0,0,4,0.03
2013-2-10,46,40,32,40,37,31,97,90,72,30.38,30.32,2,0,7,0.01
2013-2-11,47,42,37,41,39,35,96,88,75,30.37,30.33,1,0,5,0.00
2013-2-12,49,46,43,47,44,41,97,94,86,30.41,30.32,4,1,15,0.06
2013-2-13,48,46,43,45,42,39,94,87,80,30.50,30.32,5,1,15,0.02
2013-2-14,49,45,42,46,43,40,97,93,88,30.55,30.50,0,0,2,0.05
2013-2-15,54,43,39,47,41,38,97,92,75,30.55,30.20,3,0,6,0.01
2013-2-16,51,44,36,44,40,35,98,86,65,30.21,30.13,6,2,17,0.01
2013-2-17,45,42,40,40,37,35,91,82,72,30.26,30.13,4,0,7,0.03
2013-2-18,45,40,36,38,36,34,96,87,73,30.13,29.77,2,0,10,0.02
2013-2-19,50,40,33,38,35,31,95,83,60,30.01,29.74,4,0,6,0.01
2013-2-20,44,38,33,40,35,31,96,91,77,30.05,30.00,4,0,10,0.06
2013-2-21,43,40,37,40,38,36,97,91,85,30.09,30.02,6,1,14,0.06
2013-2-22,44,41,38,42,39,34,96,91,82,30.08,29.74,7,2,18,0.44
2013-2-23,48,41,38,40,37,35,91,84,66,30.39,29.92,3,1,8,0.01
2013-2-24,46,42,40,41,38,36,88,83,70,30.39,29.97,4,1,10,0.01
2013-2-25,49,43,39,39,37,32,93,80,52,30.31,29.92,7,3,19,0.10
2013-2-26,47,43,39,36,34,32,86,73,56,30.36,30.21,3,0,8,0.03
2013-2-27,49,43,37,44,40,36,97,90,76,30.31,30.21,1,0,3,0.28
2013-2-28,50,45,42,49,44,41,98,97,95,30.34,30.19,1,0,5,0.49
2013-3-1,58,53,50,51,50,47,98,89,76,30.38,30.30,4,1,12,0.14
2013-3-2,56,48,39,48,44,37,95,88,73,30.30,30.08,5,1,16,0.10
2013-3-3,49,40,32,38,35,30,96,84,53,30.30,30.20,4,0,6,0.09
2013-3-4,55,39,28,38,30,26,96,73,38,30.31,29.93,2,0,6,0.01
2013-3-5,50,46,42,40,34,26,88,64,49,29.93,29.73,2,0,5,0.01
2013-3-6,44,41,37,41,39,35,95,92,85,29.91,29.57,2,0,10,0.57
2013-3-7,51,43,36,45,40,34,97,91,76,30.09,29.91,1,0,4,0.64
2013-3-8,53,40,30,42,36,29,97,87,65,30.24,30.09,4,0,7,0.01
2013-3-9,55,41,31,41,35,30,97,82,47,30.50,30.24,3,1,8,0.01
2013-3-10,45,41,35,43,38,33,95,92,84,30.51,30.44,0,0,2,0.05
2013-3-11,51,45,38,46,42,37,97,91,77,30.45,30.19,2,0,4,0.07
2013-3-12,54,51,46,50,48,45,97,90,76,30.19,30.11,5,1,14,0.07
2013-3-13,52,51,49,51,49,47,96,95,87,30.22,30.11,4,0,11,0.15
2013-3-14,53,49,47,51,48,46,98,94,82,30.17,30.04,3,0,7,0.08
2013-3-15,58,52,47,51,48,45,97,90,76,30.23,30.16,3,1,8,0.09
2013-3-16,49,46,40,46,42,35,92,86,75,30.16,29.91,6,2,18,0.12
2013-3-17,40,40,39,37,36,35,89,87,82,30.20,29.98,2,1,7,0.11
2013-3-18,52,45,36,38,35,31,90,69,48,30.24,30.16,4,1,13,0.00
2013-3-19,55,41,32,41,34,29,95,80,38,30.24,29.81,3,0,11,0.08
2013-3-20,42,41,39,35,34,33,80,78,75,30.03,29.87,5,3,17,0.69
2013-3-21,46,38,33,37,34,31,95,85,59,30.22,30.03,4,1,12,0.15
2013-3-22,45,36,31,40,33,29,96,90,70,30.38,30.22,1,0,4,0.41
2013-3-23,50,38,31,33,30,27,95,75,43,30.40,30.30,4,0,7,0.01
2013-3-24,56,41,29,37,32,27,93,72,38,30.32,30.13,2,0,6,0.01
2013-3-25,62,48,33,39,32,28,87,58,34,30.14,29.93,4,0,6,0.00
2013-3-26,60,50,44,42,40,37,83,69,43,30.03,29.97,3,0,7,0.00
2013-3-27,55,48,44,50,43,39,92,83,65,30.00,29.94,2,0,4,0.03
2013-3-28,60,49,42,50,45,40,96,87,61,30.16,29.99,2,0,6,0.06
2013-3-29,65,52,42,50,45,41,96,79,48,30.26,30.16,3,0,7,0.01
2013-3-30,70,53,38,48,43,-100,96,75,43,30.27,30.08,3,0,8,0.00
2013-3-31,70,54,40,48,44,39,96,73,44,30.08,29.92,3,1,8,0.00
2013-4-1,62,51,43,52,47,41,96,84,63,30.18,29.98,4,0,7,0.00
2013-4-2,54,51,48,49,47,45,93,88,82,30.22,30.16,1,0,4,0.00
2013-4-3,62,52,42,49,46,40,97,79,56,30.20,29.97,3,0,6,0.00
2013-4-4,55,51,48,54,50,45,96,93,85,29.97,29.66,1,0,6,0.21
2013-4-5,53,51,49,51,49,48,96,94,88,29.90,29.75,5,2,10,0.69
2013-5-4,68,64,52,48,45,40,68,51,46,30.08,29.99,10,4,19,0.00
2013-5-5,69,58,48,50,41,35,86,55,33,30.04,29.91,9,3,17,0.01
2013-5-6,62,55,52,57,49,43,98,80,63,29.99,29.95,4,2,11,0.35
2013-5-7,65,56,50,59,54,50,100,92,70,29.97,29.92,4,1,10,0.55
2013-5-8,69,58,50,54,52,50,100,83,55,29.99,29.91,6,2,11,0.01
2013-5-9,76,61,48,57,53,47,99,77,45,30.03,29.94,5,1,12,0.00
2013-5-10,70,58,56,62,54,-100,99,92,75,29.98,29.82,5,2,16,0.59
2013-5-11,58,52,43,57,50,41,98,92,80,29.95,29.82,11,4,24,0.05
2013-5-12,51,44,35,40,31,-100,96,66,48,30.12,29.95,10,5,21,0.01
2013-5-13,53,43,35,35,32,26,94,68,38,30.19,30.11,6,2,15,0.00
2013-5-14,73,55,35,55,43,33,94,65,42,30.16,29.84,7,2,17,0.00
2013-5-15,84,74,63,62,58,54,74,58,46,29.86,29.78,12,5,24,0.00
2013-5-16,73,61,60,62,37,-100,98,78,51,30.00,29.82,6,2,16,0.06
2013-5-17,77,64,57,66,53,-100,100,84,55,30.10,30.00,4,1,9,0.01
2013-5-18,78,65,57,65,60,56,98,84,61,30.10,29.98,5,1,13,0.04
2013-5-19,77,67,58,67,62,57,99,87,69,30.04,29.93,6,1,10,0.04
2013-5-20,82,70,62,71,66,61,100,88,63,30.03,29.91,7,2,11,0.01
2013-5-21,82,73,65,68,65,61,98,79,55,29.96,29.83,5,2,11,0.00
2013-5-22,76,69,61,64,61,58,92,76,63,29.88,29.76,5,2,11,0.03
2013-5-23,70,61,46,61,57,42,98,87,60,30.03,29.80,13,4,27,0.18
2013-5-24,56,48,41,43,38,35,89,71,50,30.32,30.03,9,5,20,0.10
2013-5-25,62,50,35,44,40,34,99,72,47,30.39,30.24,7,2,15,0.00
2013-5-26,68,54,39,46,38,33,97,60,31,30.34,30.22,5,1,10,0.00
2013-5-27,69,57,45,52,46,42,91,69,43,30.26,30.03,9,3,18,0.04
2013-5-28,83,73,62,63,59,52,85,63,45,30.05,29.97,7,2,16,0.02
2013-5-29,85,78,70,63,60,57,69,55,42,30.09,30.00,7,2,19,0.02
2013-5-30,88,76,64,65,62,57,88,63,38,30.19,30.06,6,2,11,0.00
2013-5-31,87,74,64,66,62,59,89,70,45,30.11,29.98,6,2,19,0.36
2013-6-1,83,74,66,68,65,63,90,75,56,30.01,29.80,7,2,14,0.36
2013-6-2,79,72,66,68,59,-100,89,69,48,29.91,29.80,6,3,18,0.14
2013-6-3,67,63,55,60,54,51,85,73,63,30.08,29.91,7,3,11,0.00
2013-6-4,75,61,44,52,44,40,89,57,35,30.19,30.08,6,2,13,0.00
2013-6-5,81,68,53,65,53,45,84,59,42,30.13,29.89,5,1,11,0.01
2013-6-6,72,68,63,66,63,59,92,86,74,29.91,29.78,5,1,11,0.88
2013-6-7,69,61,56,59,55,52,91,81,64,29.91,29.80,6,3,12,0.01
2013-6-8,76,64,53,59,54,50,91,70,45,30.08,29.90,5,1,11,0.00
2013-6-9,82,72,63,65,61,58,85,70,46,30.12,29.97,5,1,12,0.01
2013-6-10,76,69,66,66,63,60,92,84,69,29.97,29.79,4,2,10,0.25
2013-6-11,83,72,64,66,63,60,89,74,53,29.96,29.84,7,3,15,0.02
2013-6-12,86,77,68,75,69,64,89,76,66,29.93,29.75,3,1,8,0.00
2013-6-13,81,71,65,72,62,57,94,77,56,29.88,29.60,9,4,21,1.02
2013-6-14,76,68,56,59,56,53,91,69,52,30.07,29.88,8,3,14,0.01
2013-6-15,78,68,53,62,57,51,94,71,47,30.15,30.00,4,1,9,0.00
2013-6-16,76,71,67,68,65,60,90,81,68,30.01,29.95,5,2,14,0.12
2013-6-17,82,73,66,70,67,64,94,82,59,30.00,29.90,3,1,10,0.04
2013-6-18,79,70,65,68,65,57,92,82,64,29.99,29.87,7,1,16,0.18
2013-6-19,77,67,56,58,53,46,86,64,35,30.15,29.99,7,2,11,0.18
2013-6-20,82,64,51,57,53,49,94,71,38,30.24,30.15,6,1,10,0.00
2013-6-22,87,84,74,70,68,67,85,59,51,30.19,30.07,5,2,11,0.00
2013-6-23,87,77,66,70,67,64,94,73,51,30.16,30.06,4,1,10,0.00
2013-6-24,86,76,65,69,66,63,92,72,55,30.16,30.03,6,2,13,0.00
2013-6-25,90,79,69,75,69,64,89,73,60,30.09,29.91,5,2,15,0.00
2013-6-26,83,75,67,72,69,65,94,81,65,29.95,29.82,7,2,14,1.06
2013-6-27,83,73,67,72,68,65,95,86,69,29.82,29.69,7,2,12,0.85
2013-6-28,81,74,64,69,67,59,90,79,60,29.69,29.57,6,2,17,0.22
2013-6-29,77,69,61,66,62,58,92,79,63,29.69,29.58,4,1,12,0.18
2013-6-30,78,70,63,67,64,61,94,81,63,29.85,29.69,6,1,9,0.00
2013-7-1,81,71,65,67,64,62,93,80,58,29.95,29.82,6,2,11,0.14
2013-7-2,80,72,65,70,66,63,95,84,68,30.05,29.91,4,1,10,0.14
2013-7-3,82,75,68,72,69,66,94,82,64,30.15,30.04,5,1,11,0.01
2013-7-4,74,72,70,70,68,67,93,88,80,30.21,30.13,4,1,8,0.12
2013-7-5,78,71,67,70,68,65,95,89,74,30.18,30.11,5,1,11,0.82
2013-7-6,84,74,69,74,69,67,95,86,67,30.17,30.05,7,2,19,0.02
2013-7-7,80,73,66,68,66,62,92,79,63,30.14,30.04,4,1,10,0.02
2013-7-8,82,72,64,73,66,62,95,84,70,30.16,30.08,7,1,13,1.44
2013-7-9,87,74,69,75,70,67,95,88,67,30.12,30.01,6,2,14,2.07
2013-7-10,89,74,66,77,68,-100,95,84,67,30.03,29.84,6,2,14,1.01
2013-7-11,77,70,65,68,63,56,95,80,58,30.02,29.95,7,2,14,0.10
2013-7-12,79,68,56,64,59,54,94,73,48,30.11,30.02,6,2,13,0.00
2013-7-13,84,74,64,67,64,60,88,71,53,30.19,30.09,8,2,15,0.00
2013-7-14,88,79,67,73,70,65,93,75,60,30.27,30.18,9,2,16,0.00
2013-7-15,90,80,73,73,71,68,87,73,52,30.34,30.26,3,1,7,0.00
2013-7-16,91,81,70,75,71,68,93,74,52,30.35,30.27,4,0,7,0.01
2013-7-17,91,82,72,75,73,70,94,75,53,30.33,30.19,5,1,10,0.01
2013-7-18,91,82,72,75,72,70,93,75,53,30.23,30.05,5,1,9,0.00
2013-7-19,90,80,75,77,73,69,90,78,59,30.06,29.92,5,2,17,0.00
2013-7-20,82,74,70,74,69,-100,93,85,72,29.96,29.88,9,2,17,0.83
2013-7-21,83,75,68,72,69,67,95,84,62,29.99,29.91,5,1,9,0.04
2013-7-22,74,72,70,71,70,68,95,93,89,29.96,29.79,4,1,8,0.81
2013-7-23,85,74,69,74,69,66,96,84,65,29.83,29.71,7,2,15,0.02
2013-7-24,74,69,63,67,60,54,89,74,55,30.00,29.79,6,3,13,0.00
2013-7-25,76,66,53,59,54,51,93,70,48,30.10,30.00,7,2,12,0.00
2013-7-26,80,68,54,64,58,52,94,74,49,30.11,30.00,3,1,9,0.00
2013-7-27,72,67,64,65,63,61,93,88,77,30.00,29.85,6,1,9,0.23
2013-7-28,71,64,56,61,55,50,94,74,50,30.07,29.87,8,2,15,0.14
2013-7-29,76,64,54,59,55,51,92,74,50,30.21,30.06,7,2,15,0.00
2013-7-30,79,67,55,64,58,53,94,74,49,30.25,30.15,6,0,10,0.00
2013-7-31,72,69,65,66,64,63,94,87,79,30.16,29.97,3,0,8,0.07
2013-8-1,80,72,67,66,64,60,94,77,51,29.97,29.90,8,3,14,0.07
2013-8-2,79,70,59,65,60,56,94,73,51,30.02,29.96,6,1,13,0.00
2013-8-3,76,70,64,68,65,62,94,86,70,30.03,29.98,5,1,9,0.57
2013-8-4,75,67,58,62,57,54,95,73,49,30.13,30.02,7,3,13,0.01
2013-8-5,75,64,53,62,56,51,95,76,48,30.15,30.01,4,0,9,0.01
2013-8-6,81,70,60,65,61,58,93,74,51,30.02,29.96,4,1,11,0.02
2013-8-7,85,74,65,74,68,62,92,83,66,29.97,29.91,4,1,9,0.00
2013-8-8,83,75,70,74,71,68,95,89,73,29.99,29.91,5,1,11,0.86
2013-8-9,79,73,66,70,68,63,96,87,62,30.05,29.91,5,2,10,1.36
2013-8-10,81,72,65,68,65,62,94,79,55,30.13,30.05,4,1,7,0.01
2013-8-11,83,73,63,71,66,61,95,80,63,30.12,30.03,5,1,8,0.00
2013-8-12,84,72,62,70,65,60,95,80,57,30.09,29.90,5,1,9,0.04
2013-8-13,76,69,62,70,60,-100,94,77,53,30.02,29.84,7,4,17,0.10
2013-8-14,69,64,55,53,51,48,91,64,53,30.17,30.13,5,2,10,0.00
2013-8-15,74,55,48,56,36,-100,95,70,46,30.20,30.10,5,1,9,0.00
2013-8-16,77,64,52,57,50,-100,94,69,46,30.17,30.13,4,1,13,0.00
2013-8-17,81,68,56,64,58,53,92,73,47,30.22,30.16,7,2,12,0.00
2013-8-18,70,64,59,66,60,-100,92,87,80,30.21,30.14,4,1,8,0.00
2013-8-19,80,66,64,66,51,-100,94,80,56,30.16,30.09,4,0,7,0.00
2013-8-20,84,70,58,67,60,-100,95,76,49,30.22,30.13,3,0,9,0.00
2013-8-21,82,69,62,69,64,60,95,86,65,30.20,30.10,4,0,7,0.02
2013-8-22,82,72,64,73,67,62,95,85,67,30.15,30.02,6,2,11,0.28
2013-8-23,83,74,66,68,65,59,95,76,51,30.16,30.03,6,2,11,1.40
2013-8-24,82,70,57,65,60,55,93,73,47,30.30,30.16,3,1,9,0.18
2013-8-25,83,70,59,65,59,-100,95,73,44,30.37,30.25,4,1,8,0.00
2013-8-26,85,73,60,70,64,57,91,75,54,30.28,30.07,5,1,11,0.00
2013-8-27,80,75,71,72,69,67,87,82,73,30.08,30.02,5,1,10,0.00
2013-8-28,87,83,75,75,74,69,85,73,65,29.98,29.87,8,5,17,0.00
2013-8-29,83,74,68,71,68,66,94,83,63,30.06,29.97,5,1,8,0.00
2013-8-30,86,75,64,72,68,63,95,80,58,30.03,29.86,5,1,9,0.00
2013-8-31,79,72,69,71,68,67,94,88,76,29.91,29.82,6,2,14,0.40
2013-9-1,83,79,74,71,70,68,84,73,64,29.85,29.78,4,1,9,0.00
2013-9-2,83,75,70,72,69,65,92,82,63,29.89,29.79,7,2,14,0.01
2013-9-3,69,63,57,65,56,53,90,77,60,30.08,29.89,8,3,15,0.01
2013-9-4,80,64,50,61,55,48,95,75,50,30.16,30.08,6,1,10,0.00
2013-9-5,79,68,57,64,58,48,94,72,46,30.22,30.11,7,2,13,0.00
2013-9-6,74,62,48,56,49,46,94,68,38,30.28,30.14,5,1,11,0.00
2013-9-7,81,66,50,65,56,48,95,75,49,30.14,29.97,4,1,8,0.00
2013-9-8,83,74,70,70,63,-100,84,71,63,30.04,29.95,6,2,12,0.00
2013-9-9,87,75,63,72,67,61,93,77,55,30.07,29.99,4,1,10,0.00
2013-9-10,90,81,74,76,72,68,84,74,61,30.15,30.05,5,1,10,0.00
2013-9-11,87,78,70,75,72,67,91,81,63,30.17,30.03,12,1,22,0.34
2013-9-12,76,73,68,71,69,62,92,86,74,30.04,29.85,7,2,15,0.28
2013-9-13,68,60,54,62,52,47,90,75,60,30.09,29.87,8,4,17,0.03
2013-9-14,69,56,43,50,46,41,94,71,41,30.19,30.09,4,1,11,0.00
2013-9-15,72,56,44,60,49,-100,95,80,58,30.17,30.05,4,1,8,0.01
2013-9-16,72,63,57,60,55,51,94,78,51,30.31,30.06,4,2,11,0.07
2013-9-17,73,60,48,56,52,46,94,75,49,30.36,30.22,5,1,10,0.01
2013-9-18,64,54,54,53,52,51,92,91,89,30.22,30.12,3,1,8,0.00
2013-9-19,71,66,63,67,64,61,95,92,85,30.12,30.01,4,1,8,0.30
2013-9-20,84,74,66,71,68,65,96,83,64,30.04,29.83,4,1,12,0.30
2013-9-21,72,66,55,66,60,52,95,83,53,29.85,29.71,8,2,15,0.90
2013-9-22,65,56,49,51,46,-100,92,74,51,30.04,29.85,5,2,10,0.09
2013-9-23,65,52,41,50,44,39,95,77,51,30.15,30.04,7,1,12,0.00
2013-9-24,71,53,39,51,45,37,95,77,47,30.13,29.96,3,1,10,0.00
2013-9-25,75,58,44,57,50,42,95,77,45,29.98,29.88,2,0,9,0.00
2013-9-26,79,62,48,57,50,46,95,71,33,30.10,29.94,4,1,9,0.01
2013-9-27,78,61,45,56,50,43,95,73,41,30.19,30.10,4,1,8,0.01
2013-9-28,78,62,48,58,53,46,95,75,44,30.22,30.10,4,1,7,0.00
2013-9-29,75,63,55,62,56,-100,93,82,65,30.10,30.00,3,1,8,0.01
2013-9-30,72,65,60,62,59,57,92,83,65,30.05,29.98,3,0,9,0.01
2013-10-1,73,65,62,61,59,58,92,82,65,30.06,30.02,0,0,1,0.00
2013-10-2,82,68,56,68,62,54,95,82,59,30.14,30.05,3,0,7,0.00
2013-10-3,79,70,66,69,66,64,94,86,66,30.11,30.03,4,1,10,0.01
2013-10-4,82,71,62,68,65,61,95,81,57,30.11,30.04,3,1,10,0.01
2013-10-5,82,73,64,70,67,62,94,82,65,30.09,29.98,4,1,13,0.00
2013-10-6,80,70,55,68,65,53,94,83,63,29.97,29.72,6,2,14,1.07
2013-10-7,61,54,46,53,47,43,94,78,53,30.16,29.81,8,2,18,1.61
2013-10-8,67,54,40,50,44,38,95,73,45,30.29,30.16,6,1,11,0.08
2013-10-9,70,54,42,49,44,40,95,73,35,30.29,30.19,5,1,11,0.00
2013-10-10,75,56,40,55,47,38,94,75,46,30.20,30.09,3,0,7,0.00
2013-10-11,75,60,45,55,50,43,95,74,38,30.11,30.03,5,1,10,0.00
2013-10-12,70,60,51,60,55,50,95,85,69,30.14,30.06,3,0,7,0.00
2013-10-13,71,62,56,62,56,-100,95,85,72,30.29,30.14,6,1,11,0.00
2013-10-14,70,59,50,57,52,47,93,79,58,30.33,30.21,4,1,11,0.00
2013-10-15,70,60,50,62,56,48,95,88,76,30.23,29.97,4,1,8,0.00
2013-10-16,66,64,58,63,60,52,93,89,80,29.98,29.88,4,1,9,0.06
2013-10-17,58,50,44,52,46,42,94,87,78,29.97,29.84,6,2,12,0.21
2013-10-18,62,52,44,47,44,42,93,76,49,30.05,29.96,5,1,14,0.10
2013-10-19,53,46,42,48,43,39,91,88,80,29.99,29.80,8,2,17,0.11
2013-10-20,60,48,38,42,38,-100,90,72,50,30.04,29.98,6,2,15,0.01
2013-10-21,66,52,39,44,40,36,92,66,37,30.03,29.88,6,2,13,0.00
2013-10-22,58,44,36,48,34,28,90,69,43,30.04,29.88,8,2,17,0.11
2013-10-23,45,40,35,38,36,33,93,86,66,30.01,29.77,7,3,20,0.43
2013-10-24,41,38,35,36,33,31,91,84,70,30.22,30.00,9,2,15,0.12
2013-10-25,47,40,30,34,30,27,90,69,49,30.40,30.22,6,3,14,0.01
2013-10-26,48,42,34,34,29,26,78,62,47,30.28,29.93,6,2,17,0.00
2013-10-27,54,42,31,37,32,-100,93,72,45,30.11,30.03,5,1,11,0.00
2013-10-28,61,43,29,39,33,-100,94,75,39,30.30,30.10,3,0,9,0.00
2013-10-29,60,45,32,43,38,30,94,77,47,30.38,30.24,2,0,5,0.00
2013-10-30,62,55,48,57,50,42,93,85,78,30.24,30.07,4,1,7,0.01
2013-11-12,37,29,25,34,24,20,93,80,69,30.56,30.17,11,5,17,0.06
2013-11-13,38,29,21,23,20,17,89,70,44,30.60,30.40,7,2,13,0.01
2013-11-14,52,40,29,25,21,17,75,50,25,30.40,30.16,7,2,13,0.00
2013-11-15,53,43,30,42,29,23,83,60,35,30.20,30.11,5,2,13,0.00
2013-11-16,60,52,45,53,45,-100,88,80,73,30.19,29.96,6,2,12,0.00
2013-11-17,61,58,54,58,54,42,92,85,59,29.96,29.52,11,7,27,0.99
2013-11-18,54,46,38,42,36,29,81,68,51,30.15,29.74,13,7,24,0.50
2013-12-5,62,52,35,59,48,32,95,85,76,30.11,29.80,10,4,18,0.93
2013-12-6,35,31,27,32,29,25,93,91,88,30.33,30.09,8,4,15,0.19
2013-12-7,27,24,18,25,17,-100,92,77,64,30.58,30.33,6,3,10,0.01
2013-12-8,31,25,18,29,21,13,94,86,76,30.57,30.01,8,4,14,0.01
2013-12-9,36,32,27,35,28,21,95,85,78,30.20,29.97,8,4,17,0.06
2013-12-10,29,24,20,21,17,14,90,76,59,30.31,30.11,9,5,16,0.01
2013-12-11,35,24,17,21,16,12,84,72,57,30.44,30.24,9,4,17,0.01
2013-12-12,22,18,12,14,7,1,82,63,43,30.52,30.32,9,4,15,0.01
2013-12-13,37,28,19,24,17,9,74,62,50,30.32,30.18,6,2,13,0.01
2013-12-14,39,34,31,38,31,-100,95,90,71,30.19,29.70,7,3,17,0.18
2013-12-15,35,28,25,33,23,17,93,82,67,30.09,29.75,12,7,24,0.10
2013-12-18,31,27,24,24,22,19,85,78,66,30.24,30.08,9,4,18,0.01
2013-12-19,55,46,28,40,30,20,73,55,44,30.09,29.99,8,4,16,0.02
2013-12-20,58,53,47,54,43,30,91,72,42,29.99,29.87,9,5,16,0.06
2013-12-21,66,59,56,61,55,-100,93,88,81,29.88,29.52,10,5,20,0.84
2013-12-22,67,57,48,60,51,43,92,80,63,29.98,29.50,11,6,23,0.60
2013-12-23,49,35,29,44,28,21,91,78,68,30.34,29.98,9,5,16,0.06
2013-12-24,29,20,14,22,13,7,87,76,69,30.55,30.31,11,5,20,0.01
2014-1-2,33,25,13,28,21,8,92,86,78,30.13,29.76,12,4,23,0.00